Tracking 28794 objects as of 19-Apr-2024
HD Live streaming from Space Station
objects crossing your sky now

CZ-3A R/B

Track CZ-3A R/B now!


NORAD ID: 37385
Int'l Code: 2011-013B
Perigee: 1,417.9 km
Apogee: 30,143.3 km
Inclination: 55.5 °
Period: 546.8 minutes
Semi major axis: 22151 km
RCS: 9.99 m2 (large)
Launch date: April 9, 2011
Source: People's Republic of China (PRC)
Launch site: Xichang Space Center, China (XSC)

Note: This is a ROCKET BODY
Your satellite tracking list
Your tracking list is empty




NASA's NSSDC Master Catalog

Two Line Element Set (TLE):
1 37385U 11013B   24109.90607454 -.00000040  00000-0  00000-0 0  9998
2 37385  55.5191  41.4767 6483826  72.7184 345.0031  2.63326775124205
Source of the keplerian elements: AFSPC